星链-36826(STARLINK-36826)

导读

STARLINK-36826是美国SpaceX公司星链星座中的一颗低轨互联网卫星,于2026年2月21日由美国发射升空。星链项目旨在搭建全球覆盖的低轨卫星互联网系统,为全球提供低延迟、高速率的互联网接入服务。依托SpaceX成熟的火箭发射技术,该卫星延续了星链星座的技术路线,进一步扩充星座组网规模,推动星链全球覆盖能力完善,可为民用通信、偏远地区网络接入等场景提供服务。

Basic Information
目录编号:
67885
目录名称:
STARLINK-36826
国际标识:
2026-035G
轨道中心:
EARTH
卫星名称:
星链-36826
卫星全名:
星链-36826(STARLINK-36826)
卫星状态:
在轨 (已飞行195 天)
发射日期:
2026-02-21 UTC
国别 :
美国 (US)
星等 :
--
Orbit Information
数据来源 国际轨道数据
星历时间: 2026-09-04T02:01:25+0800
10小时前
查看轨道信息
半长轴: 6843.653km
偏心率: 0.0001926
轨道倾角: 97.284°
近地点辐角 81.392°
升交点赤经 178.797°
平近点角 278.754°
近地点: 464.197km
远地点: 466.835km
周期: 93.906分钟
每日圈数: 15.334543
Detailed Information
固有亮度:
5
最大亮度:
2.5
卫星平台:
Starlink V1.0
覆盖范围:
全球
运营商:
太空探索技术公司
运营商所在国:
美国
制造商(研发单位):
太空探索技术公司
制造商所在国:
美国
使用方式:
暂无
Satellite Introduction
Starlink 计划是 SpaceX 推出的全球卫星互联网项目,通过发射低轨道卫星,为全球尤其是偏远地区提供高速、低延迟的互联网服务。自 2019 年起,Starlink 已部署数千颗卫星,旨在缩小全球数字鸿沟,推动互联网普及。该项目还为军事、航空等行业提供通信支持,带来广泛经济效益。
2D Orbit Map
3D Orbit Map
Orbit Altitude Analysis Chart
Orbit Inclination Analysis Chart
Orbit Comprehensive Analysis Chart
View Comprehensive Chart
Conjunction Data List
Event ID Objects TCA Miss Dist (km) Collision Risk Probability Collision Risk Index (CRI) Action
CDM_260904-065304-002406-788521
2026-09-04T
06:53:46+0000
1.430 km
极远距离
6.890332E-6 低风险 0.52
CDM_260903-043306-034506-788522
2026-09-03T
04:33:11+0000
2.617 km
极远距离
1.598067E-6 低风险 0.39
CDM_260830-074305-299106-788521
2026-08-30T
07:43:03+0000
2.678 km
极远距离
1.518812E-6 低风险 0.39
CDM_260904-091404-002406-788521
2026-09-04T
09:14:42+0000
2.909 km
极远距离
1.244145E-6 低风险 0.37